CAPE
2 1 1 0 0 0 0 0 0 0 1 1 1 2 2 0 0 0 0 32 545 2247 1943 983 26 19 151 94 295 51 41 8 0 0 0 0 0 0 0 8 25 23 0 0 27
0 0 0 0 0 0 0 0 0 0 1 1 1 2 1 0 0 0 0 15 1082 2575 588 499 27 100 464 497 316 75 47 29 61 0 0 0 0 0 0 48 25 14 10 15 0
0 0 0 0 0 0 0 0 0 0 0 1 1 1 0 0 0 0 23 0 1185 2442 93 5 16 0 12 148 326 30 139 67 22 0 0 0 0 0 0 25 0 0 4 13 0
0 0 0 0 0 0 0 0 0 0 0 0 1 0 0 0 0 0 295 219 420 696 0 1 9 0 75 177 244 88 66 131 183 208 45 60 66 187 0 1 24 2 3 11 2
0 0 0 0 0 0 0 0 0 0 0 0 0 0 0 0 0 0 776 597 42 0 0 0 4 2 45 62 174 175 111 159 162 165 147 187 41 0 27 37 35 21 13 8 0
0 0 0 0 0 0 0 0 0 0 0 0 0 0 0 0 0 0 8 0 0 0 0 0 0 30 58 197 216 255 196 256 254 229 201 276 23 0 0 19 24 14 5 0 0
0 0 0 0 0 0 0 0 0 0 0 0 0 0 0 0 0 0 0 0 0 0 0 0 0 0 52 34 65 7 128 270 309 232 184 494 149 17 0 6 1 0 0 0 0
0 0 0 0 0 0 0 0 0 0 0 0 0 0 0 0 0 0 0 0 0 0 0 0 0 0 2 1 0 0 0 117 432 324 146 725 534 12 0 0 0 0 1 0 0
0 0 0 0 0 0 0 0 0 0 0 0 0 0 0 0 0 0 0 0 0 0 0 0 0 0 0 44 41 4 31 92 161 533 242 821 372 39 1 0 0 0 0 0 0
0 0 0 0 0 0 0 0 0 0 0 0 0 0 0 0 0 0 0 0 0 0 0 0 0 0 0 39 27 49 67 239 99 513 699 548 583 46 41 9 0 0 46 46 182
0 0 0 0 0 0 0 0 0 0 0 0 0 0 0 0 0 0 0 0 0 0 0 0 0 0 0 24 7 14 74 63 126 277 63 606 400 286 145 83 53 58 227 293 283
0 0 0 0 0 0 0 0 0 0 0 0 0 0 0 0 0 0 0 0 0 0 0 0 0 0 0 70 21 19 10 6 60 117 47 18 145 497 395 241 197 154 238 245 334
0 0 0 0 0 0 0 0 0 0 0 0 0 0 0 0 0 0 0 0 0 0 0 0 0 0 0 10 48 0 36 49 230 151 149 6 293 397 726 524 348 379 374 329 355
0 0 0 0 0 0 0 0 0 0 0 0 0 0 0 0 0 0 0 0 0 0 0 0 0 0 0 0 4 47 7 13 91 186 6 478 571 469 125 21 125 508 516 462 439
0 0 0 0 0 0 0 0 0 0 0 0 0 0 0 0 0 0 0 0 0 0 0 0 0 0 0 0 0 0 22 2 85 9 3 46 359 198 138 177 349 821 554 611 605
0 0 0 0 0 0 0 0 0 0 0 0 0 0 0 0 0 0 0 0 0 0 0 0 0 0 0 0 0 0 0 0 0 3 21 0 239 310 124 352 676 547 621 600 680
0 0 0 0 0 0 0 0 0 0 0 0 0 0 0 0 0 0 0 0 0 0 0 0 0 0 0 0 0 0 0 0 0 0 36 406 452 481 442 241 416 548 519 518 628
0 0 0 0 0 0 0 0 0 0 0 0 0 0 0 0 0 0 0 0 0 0 0 0 0 0 0 0 0 0 0 0 0 0 0 109 38 162 294 424 433 83 273 554 661
0 0 0 0 0 0 0 0 0 0 0 0 0 0 0 0 0 0 0 0 0 0 0 0 0 0 0 0 0 0 0 0 0 0 0 105 116 182 166 204 45 22 145 156 758
0 0 0 0 0 0 0 0 0 0 0 0 0 0 0 0 0 0 0 0 0 0 0 0 0 0 0 0 0 0 0 0 0 0 0 36 59 63 73 73 72 23 81 328 332
0 0 0 0 0 0 0 0 0 0 0 0 0 0 0 0 0 0 0 0 0 0 0 0 0 0 0 0 0 0 0 0 0 0 0 0 40 8 38 0 44 51 176 50 304
0 0 0 0 0 0 0 0 0 0 0 0 0 0 0 0 0 3 0 0 0 0 0 0 0 0 0 0 0 0 0 0 0 0 0 0 82 268 198 109 71 2 268 326 241
0 0 0 0 0 0 0 0 0 0 0 0 0 0 0 0 0 1 3 1 0 0 0 0 0 0 0 0 0 0 0 0 0 0 0 0 14 3 10 89 251 285 324 6 102
0 0 0 0 0 0 0 0 0 0 0 0 0 0 0 0 0 0 0 3 0 0 0 0 0 0 0 0 0 0 0 0 0 0 0 0 28 61 24 49 608 903 762 149 2
0 0 0 0 0 0 0 0 0 0 0 0 0 0 0 0 0 5 164 309 0 4 0 0 0 0 0 0 0 0 0 0 0 0 0 0 65 401 384 800 1052 1276 1314 1210 545
0 0 0 0 0 0 0 0 0 0 0 0 0 0 0 0 19 272 225 245 231 0 0 0 0 0 0 0 0 0 0 0 0 0 0 0 234 406 195 671 1254 1335 1348 1304 1431
0 0 0 0 0 0 0 0 0 0 0 0 1 0 9 0 3 22 54 80 73 137 97 0 0 0 0 0 0 0 0 0 0 0 0 0 282 274 110 523 1133 1453 1455 1430 2130
CIN
0 0 0 0 0 0 0 0 0 0 0 0 0 0 0 0 0 0 0 -42 -413 -619 -555 -192 -522 -443 -579 -608 -456 -378 -73 -64 0 0 0 0 0 0 0 -144 -207 -199 0 0 -235
0 0 0 0 0 0 0 0 0 0 0 0 0 0 0 0 0 0 0 -179 -692 -566 -299 -126 -383 -379 -428 -300 -263 -260 -113 -50 -21 0 0 0 0 0 0 -161 -206 -260 -221 -232 -14
0 0 0 0 0 0 0 0 0 0 0 0 0 0 0 0 0 0 -128 0 -705 -580 -351 -114 -146 0 -60 -309 -191 -54 -42 -27 -69 0 0 0 0 0 0 -134 0 -44 -279 -255 0
0 0 0 0 0 0 0 0 0 0 0 0 0 0 0 0 0 0 -941 -906 -844 -639 0 -41 -87 0 -289 -153 -155 -51 -39 -35 -9 -23 -54 -50 -53 -12 0 -12 -214 -273 -120 -293 -287
0 0 0 0 0 0 0 0 0 0 0 0 0 0 0 0 0 0 -781 -826 -572 0 0 0 -100 -101 -178 -184 -109 -29 -41 -36 -24 -24 -29 -16 -66 0 -58 -154 -191 -247 -283 -302 0
0 0 0 0 0 0 0 0 0 0 0 0 0 0 0 0 0 0 -55 0 0 0 0 0 0 -104 -119 -105 -127 -170 -44 -53 -17 -65 -12 -43 -97 0 0 -208 -236 -270 -317 -46 0
0 0 0 0 0 0 0 0 0 0 0 0 0 0 0 0 0 0 0 0 0 0 0 0 0 0 -111 -187 -255 -27 -412 -107 -33 -88 -103 -51 -103 -145 0 -197 -47 0 -18 0 0
0 0 0 0 0 0 0 0 0 0 0 0 0 0 0 0 0 0 0 0 0 0 0 0 0 0 -16 -81 0 0 0 -269 -73 -120 -242 -118 -73 -169 0 0 0 0 -26 0 0
0 0 0 0 0 0 0 0 0 0 0 0 0 0 0 0 0 0 0 0 0 0 0 0 0 0 0 -171 -422 -289 -294 -303 -242 -70 -197 -66 -140 -155 -72 0 0 0 0 0 0
0 0 0 0 0 0 0 0 0 0 0 0 0 0 0 0 0 0 0 0 0 0 0 0 0 0 0 -167 -215 -345 -293 -198 -193 -72 -92 -179 -74 -168 -228 -190 -14 -12 -143 -93 -67
0 0 0 0 0 0 0 0 0 0 0 0 0 0 0 0 0 0 0 0 0 0 0 0 0 0 0 -170 -104 -196 -255 -258 -123 -68 -223 -145 -203 -136 -202 -196 -226 -201 -156 -110 -83
0 0 0 0 0 0 0 0 0 0 0 0 0 0 0 0 0 0 0 0 0 0 0 0 0 0 0 -176 -234 -277 -356 -470 -236 -154 -164 -154 -233 -101 -154 -205 -249 -230 -177 -127 -96
0 0 0 0 0 0 0 0 0 0 0 0 0 0 0 0 0 0 0 0 0 0 0 0 0 0 0 -85 -140 0 -218 -318 -142 -41 -121 -115 -167 -163 -164 -194 -183 -213 -238 -184 -122
0 0 0 0 0 0 0 0 0 0 0 0 0 0 0 0 0 0 0 0 0 0 0 0 0 0 0 0 -21 -97 -188 -196 -150 -23 -7 -60 -105 -235 -463 -32 -451 -160 -198 -161 -129
0 0 0 0 0 0 0 0 0 0 0 0 0 0 0 0 0 0 0 0 0 0 0 0 0 0 0 0 0 0 -213 -112 -39 -73 -73 -33 -157 -216 -417 -436 -350 -101 -165 -141 -129
0 0 -1 0 0 0 0 0 0 0 0 0 0 0 0 0 0 0 0 0 0 0 0 0 0 0 0 0 0 0 0 0 0 -61 -65 -20 -127 -165 -232 -196 -149 -160 -188 -181 -125
0 0 0 0 0 0 0 0 0 0 0 0 0 0 0 0 0 0 0 0 0 0 0 0 0 0 0 0 0 0 0 0 0 0 -66 -116 -125 -189 -265 -249 -217 -187 -205 -230 -166
0 0 0 0 0 0 0 0 0 0 0 -4 0 0 0 0 0 0 0 0 0 0 0 0 0 0 0 0 0 0 0 0 0 0 -9 -166 -224 -276 -257 -253 -246 -420 -229 -191 -119
0 0 0 0 0 0 0 0 0 0 0 0 0 0 0 0 0 0 0 0 0 0 0 0 0 0 0 0 0 0 0 0 0 0 0 -102 -253 -175 -249 -302 -435 -456 -303 -300 -119
0 0 0 0 0 0 0 0 0 0 0 0 0 0 0 0 0 0 0 0 0 0 0 0 0 0 0 0 0 0 0 0 0 0 0 -28 -109 -127 -197 -271 -368 -219 -289 -246 -246
0 0 0 0 0 0 0 0 0 0 0 0 0 0 0 0 0 0 0 0 0 0 0 0 0 0 0 0 0 0 0 0 0 0 0 0 -86 -58 -193 0 -240 -301 -138 -267 -139
0 0 0 0 0 0 0 0 0 0 0 0 0 0 0 0 0 -13 0 0 0 0 0 0 0 0 0 0 0 0 0 0 0 0 0 0 -57 -55 -160 -153 -129 -253 -86 -138 -396
0 0 0 0 0 0 0 0 0 0 0 0 0 0 0 0 0 -12 -16 -11 0 0 0 0 0 0 0 0 0 0 0 0 0 0 0 0 -43 -41 -21 -101 -67 -76 -271 -356 -621
0 0 0 0 0 0 0 0 0 0 0 0 0 0 0 0 0 0 0 -12 0 0 0 0 0 0 0 0 0 0 0 0 0 0 0 0 -87 -108 -53 -62 -88 -84 -150 -467 -88
0 0 0 0 0 0 0 0 0 0 0 0 0 0 0 0 0 -20 -38 -20 0 -185 0 0 0 0 0 0 0 0 0 0 0 0 0 0 -126 -83 -56 -46 -52 -77 -85 -92 -227
0 0 0 0 0 0 0 0 0 0 0 -1 0 0 0 0 -21 -44 -74 -86 -39 -1 0 0 0 0 0 0 0 0 0 0 0 0 0 0 -125 -177 -124 -97 -79 -85 -71 -76 -97
0 0 0 0 0 0 0 0 0 0 0 -1 -3 0 -6 -7 -189 -190 -155 -122 -116 -77 -51 0 0 0 0 0 0 0 0 0 0 0 0 0 -126 -258 -208 -91 -91 -116 -107 -101 -166
Wind_Speed
18 19 19 20 21 20 20 20 19 19 19 21 22 18 16 19 23 3 5 4 4 13 7 14 21 21 17 13 12 11 1 8 11 9 10 15 20 19 20 21 23 12 17 10 10
20 19 20 20 20 21 21 20 20 20 19 19 20 18 14 15 5 9 5 8 5 13 5 6 18 13 6 4 8 7 6 10 7 14 15 13 12 15 15 19 18 22 17 10 9
21 21 21 21 21 21 21 22 21 21 20 19 18 17 14 12 4 8 6 6 6 8 3 4 4 12 7 4 6 4 5 11 16 17 13 16 15 14 12 18 24 26 24 17 14
20 21 22 23 23 22 22 22 22 21 20 18 16 15 13 4 2 2 9 9 9 6 7 4 5 6 7 5 15 7 9 9 11 16 13 12 15 10 13 14 26 25 22 18 16
21 21 22 23 24 24 23 22 21 21 19 18 14 11 5 3 10 5 6 5 7 6 6 9 11 9 6 6 4 2 11 6 9 7 9 16 9 13 16 25 24 24 21 16 15
21 22 23 23 24 25 24 23 22 21 20 16 13 10 3 5 5 11 8 7 8 8 7 12 8 17 5 3 16 20 13 10 7 4 8 15 12 11 16 21 24 22 19 17 16
22 23 24 25 25 25 25 24 23 22 19 14 10 5 5 15 9 2 8 7 7 8 9 16 9 6 4 15 10 26 16 13 8 7 3 9 10 11 12 18 19 18 16 14 12
23 24 25 26 26 26 26 26 26 23 17 11 4 4 9 6 12 7 7 10 10 8 10 10 10 7 15 2 12 28 15 8 12 10 6 10 4 13 14 16 14 14 13 12 10
23 24 26 27 27 27 27 31 27 20 10 5 3 4 9 2 5 10 8 9 9 7 5 9 8 5 3 13 9 6 7 14 18 7 8 5 9 13 15 15 14 13 11 10 8
23 24 25 27 28 27 30 29 10 8 5 6 8 5 8 8 7 11 9 10 7 6 6 6 4 5 2 2 4 9 5 5 5 8 9 16 7 17 16 17 16 12 9 8 8
24 25 26 27 29 23 18 9 5 2 5 8 6 7 19 6 5 5 4 6 7 6 6 8 3 8 12 8 10 14 13 5 13 17 9 24 5 16 16 15 13 11 9 9 9
24 25 26 29 30 27 5 3 6 6 11 14 19 19 20 7 2 7 6 5 6 7 7 5 7 15 12 8 12 20 20 15 13 6 8 12 13 11 15 17 19 14 13 11 9
24 25 27 31 34 9 6 12 6 8 5 12 14 11 12 7 8 11 11 9 8 9 10 9 10 15 16 10 14 14 18 15 11 9 4 11 3 11 2 4 11 15 19 16 14
24 25 25 31 5 8 6 9 8 7 4 8 6 7 7 7 8 16 10 10 7 10 11 8 14 14 11 10 13 9 17 19 26 6 5 11 3 6 6 7 5 14 17 17 17
24 23 23 10 9 6 8 15 10 3 5 9 6 3 7 8 0 5 11 7 10 11 5 13 11 8 10 9 10 9 28 31 15 3 2 3 8 6 4 7 13 14 17 17 20
25 22 20 2 4 11 15 15 6 1 8 7 7 8 5 7 12 7 5 5 7 10 11 9 10 5 7 7 7 6 7 7 3 3 1 10 11 3 10 3 11 9 9 14 20
26 28 10 6 7 8 12 6 1 4 10 8 7 11 11 9 8 8 7 5 6 4 7 10 11 9 1 4 9 3 5 5 6 5 7 9 7 12 19 25 25 20 13 11 17
30 32 8 10 9 10 5 3 4 10 10 2 4 4 8 10 11 9 8 6 9 9 6 6 9 7 5 6 3 7 6 7 7 5 5 4 5 7 16 9 15 12 7 8 11
29 4 5 6 12 7 2 4 6 5 15 9 4 3 4 7 8 9 11 10 10 11 8 5 12 10 11 6 11 11 5 12 2 5 5 4 4 6 7 5 6 8 8 9 10
6 5 7 11 13 6 2 6 7 11 16 10 7 7 9 7 7 4 9 11 11 14 10 12 7 10 13 7 7 10 8 5 5 3 5 1 6 7 10 7 12 17 19 18 15
4 4 3 13 9 2 5 7 11 17 18 2 8 12 13 9 7 6 6 7 14 10 15 10 6 17 3 6 8 1 7 2 3 5 7 3 7 8 17 16 19 18 31 30 25
6 4 6 6 3 4 8 8 7 19 16 1 5 11 10 12 8 9 4 6 10 9 5 10 3 6 8 8 11 9 10 8 7 11 4 6 6 7 19 16 18 19 10 12 12
6 5 5 5 5 8 13 18 19 20 16 3 9 8 12 9 7 8 9 5 11 6 4 4 3 4 13 9 4 9 9 6 6 3 8 2 6 4 8 7 10 9 20 15 21
5 5 4 3 7 12 13 14 16 16 6 11 10 10 9 8 8 7 10 9 9 6 4 3 5 9 8 10 1 5 7 9 6 3 6 4 3 3 11 8 8 9 17 21 20
4 5 5 3 4 10 13 16 19 17 8 7 7 10 8 6 9 10 5 9 3 8 2 4 5 3 8 9 12 8 14 12 8 10 5 4 5 5 9 10 9 9 8 12 14
4 6 8 10 12 15 12 11 16 18 9 7 8 13 10 11 5 6 10 8 6 4 4 2 6 5 8 10 11 13 7 13 11 11 8 6 2 6 8 11 7 12 10 8 7
7 7 6 7 8 10 10 12 14 11 14 14 7 5 7 10 7 7 6 6 12 8 6 5 3 2 7 9 9 7 6 6 4 9 10 7 9 6 5 9 9 9 11 10 14
Wind_Direction
350 347 343 342 339 337 335 332 330 327 322 317 318 322 323 320 312 193 252 202 163 157 103 119 87 92 150 195 241 270 101 112 127 126 98 84 97 110 125 130 147 175 141 152 131
347 343 342 339 336 334 332 330 327 326 324 319 316 318 324 328 296 269 222 170 157 134 179 190 115 116 285 213 208 206 94 125 124 115 111 110 117 134 145 152 126 127 133 144 134
344 341 338 337 334 332 330 327 326 326 324 323 318 317 320 319 300 248 139 184 151 165 277 304 197 41 278 293 280 64 96 91 111 115 131 148 157 155 140 139 147 140 146 164 152
342 339 336 334 331 330 328 326 323 324 323 323 319 317 320 270 262 101 176 178 148 212 222 230 210 161 142 205 243 105 86 97 93 132 152 156 147 159 153 137 135 140 150 165 166
340 337 334 332 329 327 325 323 321 319 320 320 320 326 313 245 253 153 167 184 155 188 227 246 261 169 184 297 90 25 113 88 115 104 136 111 107 98 122 128 133 140 153 167 176
339 336 332 330 327 325 323 320 317 314 315 315 319 324 257 255 205 153 181 161 241 189 256 259 262 139 172 214 42 359 125 151 151 162 78 111 112 105 119 131 138 146 163 175 186
338 335 331 329 326 324 320 317 312 307 304 305 311 294 264 241 313 187 204 229 221 207 260 273 313 36 217 68 56 34 30 315 138 86 20 103 110 120 123 130 140 151 168 179 193
335 332 330 328 326 323 320 314 304 296 293 281 281 269 253 239 238 250 262 281 265 221 232 288 306 333 87 351 57 64 352 343 338 108 316 80 136 134 134 137 146 160 178 181 192
332 330 328 326 325 323 320 311 299 286 247 253 243 224 270 260 223 233 225 252 253 258 273 283 296 289 25 130 87 130 199 235 280 215 157 164 156 149 147 148 160 170 181 182 193
331 329 327 324 323 325 321 300 285 313 186 229 259 290 270 248 240 217 218 238 255 229 230 233 279 265 28 123 154 166 171 264 304 236 126 14 194 155 163 161 168 171 169 174 170
330 328 325 323 320 327 339 339 336 20 225 246 217 253 290 220 100 331 278 217 274 285 204 232 202 247 245 209 162 78 95 349 250 244 117 161 225 162 168 165 169 169 161 165 170
329 327 325 324 318 318 279 263 50 268 297 264 264 264 266 284 311 224 222 230 232 251 231 260 213 245 259 152 183 118 120 186 257 210 106 128 234 226 175 178 170 173 166 167 178
328 328 328 324 318 299 245 281 298 332 277 288 234 229 237 222 231 254 169 230 217 233 252 197 228 236 243 179 201 152 165 214 216 191 138 128 78 297 235 20 187 177 171 169 174
327 327 330 331 326 342 284 9 341 324 297 265 185 212 209 176 245 229 204 179 232 230 232 236 239 246 245 243 191 201 163 264 236 151 194 147 207 242 248 261 222 204 173 174 173
323 326 328 323 306 295 329 329 314 321 315 161 159 111 170 178 228 201 224 194 235 245 218 248 248 255 250 225 242 255 163 204 217 358 77 211 85 284 39 291 266 202 180 177 178
320 321 334 330 216 254 296 287 304 277 241 178 136 178 195 207 261 203 176 160 215 262 278 255 270 287 232 277 281 300 340 336 318 159 271 257 122 224 166 120 273 244 173 189 177
318 312 301 291 241 342 326 305 293 231 315 161 180 163 178 204 240 151 178 207 218 216 272 283 264 282 274 24 334 343 345 338 339 354 225 118 96 210 201 200 197 222 204 182 187
319 309 238 207 228 258 289 315 254 271 273 239 105 192 168 193 215 213 181 207 215 245 211 221 292 244 259 176 213 268 198 164 235 241 258 105 140 264 220 207 226 245 195 193 190
316 288 234 228 212 245 268 244 230 242 333 351 358 202 254 234 183 190 185 189 203 218 210 218 250 233 206 172 161 264 281 234 246 304 29 155 227 357 214 217 253 300 258 249 209
313 284 253 229 165 200 218 254 290 319 302 355 343 315 325 253 174 214 194 203 210 198 192 257 303 272 229 188 203 170 236 358 344 251 284 323 173 204 220 185 178 226 237 229 243
260 278 163 163 168 223 234 241 282 280 289 351 303 314 316 320 233 220 234 223 201 204 196 221 184 280 98 153 173 189 274 272 167 153 188 171 253 201 191 201 180 222 225 221 216
314 273 152 142 173 209 234 259 269 284 290 31 289 291 299 310 324 291 230 258 181 170 207 208 177 262 224 217 179 191 208 193 127 279 245 165 252 178 191 210 163 210 160 144 89
307 280 241 175 240 237 257 250 248 271 278 291 273 255 279 291 333 328 341 340 68 71 69 328 259 305 327 331 201 180 228 221 217 224 256 170 231 186 122 134 156 140 138 115 128
286 290 232 178 233 272 296 291 285 246 246 285 303 302 292 316 306 296 305 292 131 126 142 63 238 172 209 223 119 219 202 229 198 192 249 254 81 16 147 173 110 111 125 148 161
244 267 19 304 294 293 247 270 292 301 215 201 295 293 308 314 299 303 337 358 256 133 160 131 267 257 262 274 281 254 189 214 229 240 163 222 147 153 142 127 127 122 108 129 169
300 344 341 299 297 297 292 233 268 286 302 194 206 251 242 253 276 333 358 18 327 338 186 260 270 292 301 297 291 293 234 211 200 229 257 257 265 213 155 125 150 145 136 144 121
349 338 307 295 306 317 292 295 289 278 297 300 231 245 295 30 8 326 314 304 295 302 314 209 201 282 269 278 297 317 255 289 234 203 199 229 191 205 86 140 161 160 150 150 125